Weather in Deurne

Netherlands     51°27′43″N   5°47′25″E
temp.,
°C
wind,
m/s
gust,
m/s
humid.,
%
clouds,
%
prec.,
mm/h
press.,
hPa
HPBL,
m
26 june, sun
sun2623:00+16nnw2295100 2.3 101263
02:00+16ssw2696100 2.6 1012240
05:00+14sw369790 0.0 1013158
08:00+16sw368794 0.0 1015345
11:00+19sw4562100 0.0 1016995
14:00+22ssw3451100 0.0 10161425
17:00+20sse6568100 0.0 1016793
20:00+19sse347055 0.2 1015647
27 june, mon
mon2723:00+16ese2284100 0.0 101628
02:00+16sse2390100 0.1 1016115
05:00+15s249498 0.0 101593
08:00+17sw2479100 0.0 1015255
11:00+20wsw5562100 0.0 1016870
14:00+20wsw6757100 0.2 10181176
17:00+19wnw4563100 0.0 1019840
20:00+19e127266 0.7 101949
28 june, tue
tue2823:00+14nnw338613 1.1 102146
02:00+13nnw11845 1.1 102110
05:00+12wsw11835 0.0 102210
08:00+15sw12760 0.0 1022169
11:00+20s22570 0.0 1022884
14:00+23sse34430 0.0 10201774
17:00+25s13392 0.0 10182047
20:00+24ene235395 0.0 101779
29 june, wed
wed2923:00+19ese225424 0.0 101713
02:00+17se226394 0.0 101622
05:00+15s226960 0.0 101611
08:00+19ssw23635 0.0 1016162
11:00+24sw3447100 0.0 1016920
14:00+27ssw343983 0.0 10152005
17:00+28sse34355 0.0 10142335
20:00+27ese11497 0.0 101321
30 june, thu
thu3023:00+20e22634 0.0 101319
02:00+19se23690 0.0 101324
05:00+17ese22790 0.0 101222
08:00+21s23600 0.0 1012150
11:00+27ese33515 0.0 1011667
14:00+30se564364 0.0 10102640
17:00+31ese563878 0.0 10082094
20:00+28ese4948100 0.0 1006331